TIME,DELAY(SENSOR),PRES,OXYGEN,RAWTEMP,T(OPTODE),TCPHASE,FLUOR,BETA(BETA700),BETA(BETA412),BETA(BETA440),CDOM,C(CSC),ED(ED411.90),ED(ED443.80),ED(ED489.40),ED(ED554.70),LU(LU412.20),LU(LU443.80),LU(LU489.40),LU(LU555.00),COMP,TILTX,TILTY,CHECK
1360449985,5803,868.4899902343750000,176.6923980712890600,471.1264953613281000,8.4225864410400390,38.9295196533203100,61,161,96,80,81,11950,2146962011,2147513334,2147292617,2147509266,2147090660,2146929499,2147715062,2147123328,1119,-1,9,62729
1360453581,5804,981.0700073242188000,220.4492034912109400,527.4581909179688000,6.6750321388244630,37.1820297241210940,66,166,97,80,80,11945,2146964909,2147517293,2147297188,2147518400,2147089060,2146915693,2147721956,2147124187,1238,-1,9,39386
1360457181,5805,994.2999877929688000,230.2790985107422000,536.5192871093750000,6.3918700218200680,36.8073310852050800,65,168,97,79,79,11945,2146963437,2147518107,2147297965,2147523456,2147088996,2146921033,2147723803,2147124123,3098,-1,8,15134
1360460781,5806,990.7000122070312000,235.1750946044922000,541.2880859375000000,6.2425961494445800,36.6336593627929700,66,167,97,80,80,11942,2146964022,2147516068,2147299684,2147521563,2147089417,2146915474,2147729764,2147119213,2764,-1,9,898
1360464381,5807,995.9000244140625000,238.2268066406250000,544.1248779296875000,6.1537151336669920,36.5261688232421900,67,167,97,79,80,11942,2146963785,2147517668,2147303478,2147522066,2147090057,2146919579,2147723821,2147121892,3468,-1,9,6617
1360467981,5806,999.3699951171875000,237.9533996582031200,544.3833007812500000,6.1456179618835450,36.5454101562500000,66,169,96,80,80,11939,2146963373,2147516726,2147301467,2147521325,2147090989,2146918089,2147731081,2147123757,3549,-1,9,12842
1360471581,5806,1007.6300048828125000,238.2257995605468800,543.8272705078125000,6.1630458831787110,36.5211410522460940,66,168,99,79,81,11928,2146965010,2147515629,2147298166,2147523968,2147091108,2146922048,2147733476,2147120493,226,-1,8,40895
1360475181,5805,1008.2199707031250000,237.2821044921875000,543.2998046875000000,6.1795749664306640,36.5600395202636700,67,171,97,79,80,11930,2146963053,2147518774,2147301394,2147521206,2147091922,2146919323,2147729581,2147122898,3546,-1,9,25838
1360478781,5806,1009.9199829101562000,237.3247985839843800,543.9141845703125000,6.1603221893310550,36.5690917968750000,67,167,98,79,80,11929,2146963602,2147515867,2147300406,2147521764,2147090313,2146919716,2147729892,2147123373,3194,-1,9,23830
1360482381,5805,1006.8400268554688000,238.1446075439453000,544.4868164062500000,6.1423740386962890,36.5373306274414060,68,168,99,79,81,11927,2146965824,2147517366,2147303579,2147525540,2147088704,2146920667,2147726857,2147120237,2904,-1,9,25828
1360485981,5804,1004.4199829101562000,238.9429016113281200,545.4522705078125000,6.1121039390563965,36.5129203796386700,67,170,97,78,80,11928,2146963648,2147519003,2147300946,2147520073,2147087049,2146917769,2147724352,2147121481,3342,-1,9,4504
1360489581,5806,1006.9099731445312000,240.5334014892578000,545.9003295898438000,6.0980591773986820,36.4397392272949200,67,169,99,79,80,11915,2146964288,2147521115,2147298870,2147520393,2147092297,2146921252,2147730724,2147123318,3240,-1,9,46047
1360493181,5807,1012.4000244140625000,241.0641937255859400,545.6776123046875000,6.1050429344177250,36.4087715148925800,67,172,96,79,81,11926,2146964452,2147518994,2147297088,2147520978,2147091053,2146922377,2147728393,2147121801,3209,-1,9,21249
1360496781,5802,1004.0000000000000000,240.4476013183593800,546.3566894531250000,6.0837478637695310,36.4528312683105500,66,194,97,80,80,11925,2146965970,2147518857,2147300598,2147521444,2147092041,2146921389,2147730560,2147119817,3261,-1,9,46111
1360500381,5809,998.8300170898438000,239.1414947509765600,548.7454223632812000,6.0088181495666500,36.5624809265136700,67,169,97,80,80,11925,2146965357,2147517339,2147300809,2147524278,2147089874,2146919734,2147731474,2147121609,18,-1,8,6507
1360503981,5802,1007.2299804687500000,241.9322967529297000,547.9932250976562000,6.0324192047119140,36.4060401916503900,67,171,98,79,81,11927,2146963757,2147517101,2147301476,2147523163,2147090304,2146916681,2147726427,2147123328,3350,-1,9,25521
1360507581,5805,1010.7199707031250000,240.1544036865234400,547.6926879882812000,6.0418448448181150,36.4919509887695300,66,171,102,79,81,11927,2146964361,2147518601,2147301705,2147521581,2147088539,2146917467,2147730203,2147122514,139,-1,8,51369
1360511181,5808,1010.0999755859375000,243.1549072265625000,547.8209838867188000,6.0378170013427730,36.3414192199707000,66,175,99,79,79,11925,2146967634,2147515072,2147301641,2147521965,2147089654,2146918482,2147726418,2147119634,2908,-1,9,50577
1360514781,5805,1009.8499755859375000,241.7442016601562500,547.7683715820312000,6.0394687652587890,36.4116210937500000,67,173,98,79,82,11926,2146961965,2147515081,2147298560,2147522816,2147084864,2146918180,2147730029,2147120292,1357,-1,9,32276
1360518381,5804,1001.4400024414062000,242.5095062255859400,548.7595825195312000,6.0083708763122560,36.3905601501464840,68,179,98,79,80,11923,2146962166,2147520411,2147303899,2147520630,2147090413,2146919862,2147729545,2147121179,2503,-1,9,31988
1360521981,5806,1007.1799926757812000,241.1809997558593800,546.6752929687500000,6.0737571716308590,36.4205894470214840,67,172,98,79,81,11919,2146965558,2147517531,2147299538,2147523858,2147086308,2146915437,2147727643,2147119716,156,-1,9,38663
1360525581,5807,1007.7000122070312000,243.0048065185547000,548.1655883789062000,6.0270061492919920,36.3548011779785160,68,172,98,80,81,11922,2146962834,2147515026,2147296950,2147522578,2147090066,2146923209,2147724160,2147121554,21,-1,9,51842
1360529181,5805,1012.0200195312500000,243.9606018066406200,548.3363037109375000,6.0216522216796875,36.3097801208496100,67,173,98,79,81,11918,2146966994,2147514953,2147299666,2147522340,2147087460,2146917074,2147726857,2147121755,3479,-1,9,62269
1360532781,5805,1010.3200073242188000,243.3119049072265600,548.0634765625000000,6.0302119255065920,36.3376312255859400,67,173,97,80,81,11912,2146964763,2147517942,2147301485,2147523885,2147088036,2146913764,2147724708,2147122386,3585,-1,9,56786
1360536381,5805,1009.4799804687500000,243.1676025390625000,548.2954101562500000,6.0229358673095700,36.3488807678222660,66,174,98,79,81,11913,2146964032,2147520987,2147296118,2147520969,2147086107,2146912045,2147726765,2147121014,104,-1,8,915
1360539981,5808,1003.1500244140625000,245.6286010742187500,550.6729736328125000,5.9483151435852050,36.2684097290039060,66,177,97,79,81,11914,2146965412,2147515785,2147301705,2147521545,2147088530,2146918482,2147728722,2147116425,150,0,8,64603
1360543581,5807,1006.6500244140625000,245.5500030517578000,550.7584228515625000,5.9456348419189450,36.2746009826660160,66,175,98,78,81,11915,2146964470,2147520429,2147300672,2147522523,2147090944,2146918738,2147731300,2147121865,161,-1,8,50397
1360547181,5807,1011.4799804687500000,244.8462982177734400,549.0537719726562000,5.9991397857666020,36.2788581848144500,67,180,98,80,80,11908,2146967149,2147517513,2147298953,2147520448,2147094829,2146915766,2147729133,2147121984,460,-1,9,54310
1360550781,5807,1011.3699951171875000,243.4291992187500000,547.8300781250000000,6.0375351905822750,36.3274192810058600,66,176,98,80,81,11910,2146962331,2147520347,2147300507,2147524297,2147090532,2146918125,2147730358,2147121014,316,-1,9,62370
1360554381,5806,1008.6099853515625000,243.4380950927734400,549.0817871093750000,5.9982600212097170,36.3503608703613300,67,175,99,79,80,11901,2146963200,2147515090,2147297389,2147521097,2147090624,2146914843,2147728292,2147120064,721,-1,9,47990
1360557981,5808,1008.5300292968750000,245.4073028564453000,550.1497192382812000,5.9647450447082520,36.2706413269043000,67,175,97,78,80,11898,2146965933,2147516288,2147301147,2147521526,2147089554,2146917330,2147729097,2147122057,975,-1,9,46264
1360561581,5805,1007.8400268554688000,245.2507934570312500,550.9603271484375000,5.9392971992492680,36.2926406860351560,67,175,98,78,81,11899,2146963456,2147516315,2147303323,2147518537,2147087579,2146918976,2147729709,2147121005,3207,-1,9,44126
1360565181,5806,1007.9699707031250000,245.1663055419922000,550.4923095703125000,5.9539890289306640,36.2887611389160160,66,178,97,79,81,11897,2146967414,2147520036,2147298148,2147524653,2147095405,2146921490,2147727213,2147120530,3234,-1,9,37473
1360568781,5808,1008.5000000000000000,244.2731933593750000,549.8391113281250000,5.9744949340820310,36.3215599060058600,66,176,97,90,79,11897,2146965138,2147517686,2147301202,2147523492,2147088603,2146920795,2147731830,2147123291,3101,-1,8,44830
1360572381,5806,1018.0300292968750000,242.2684020996093800,548.0325927734375000,6.0311808586120605,36.3897705078125000,65,178,98,79,80,11892,2146963904,2147519488,2147299940,2147523693,2147090898,2146922349,2147729462,2147120310,31,0,8,32601
1360575981,5807,1012.8499755859375000,239.3321990966797000,548.2733154296875000,6.0236301422119140,36.5442504882812500,66,180,98,79,80,11890,2146964288,2147516882,2147298450,2147520832,2147088466,2146918299,2147726162,2147123766,253,-1,8,57908
1360579581,5803,1010.2399902343750000,242.0090026855468800,549.8237304687500000,5.9749760627746580,36.4358291625976560,65,183,96,79,80,11894,2146962934,2147519762,2147303963,2147520475,2147088256,2146919634,2147730386,2147121490,3359,-1,9,56834
1360583181,5806,1008.9799804687500000,240.4813995361328000,550.7086181640625000,5.9472007751464840,36.5294799804687500,67,180,97,79,80,11890,2146965449,2147517293,2147298368,2147520576,2147090587,2146918427,2147726509,2147122459,122,-1,8,16360
1360586781,5802,1008.9199829101562000,245.9550933837890600,551.5850830078125000,5.9196782112121580,36.2690086364746100,66,178,98,80,81,11880,2146962404,2147514605,2147300178,2147521389,2147088365,2146919030,2147734061,2147120027,2758,0,9,62758
1360590381,5807,1008.4600219726562000,246.1972045898437500,551.2783203125000000,5.9293141365051270,36.2511100769043000,66,180,98,79,81,11882,2146966098,2147520905,2147301933,2147523218,2147087442,2146917010,2147727177,2147121133,3165,-1,9,19514
1360593954,5807,1006.8800048828125000,248.0364074707031200,552.6281127929688000,5.8869228363037110,36.1842994689941400,66,179,98,79,81,11901,2146965494,2147516352,2147298614,2147519213,2147088539,2146922285,2147727780,2147123254,3164,-1,9,20296
